Time,TemperatureF,DewpointF,PressureIn,WindDirection,WindDirectionDegrees,WindSpeedMPH,WindSpeedGustMPH,Humidity,HourlyPrecipIn,Conditions,Clouds,dailyrainin,SoftwareType,DateUTC
2013-01-15 00:04:00,41.8,34.1,30.16,NE,56,1.0,1.0,74,0.00,,SKC,0.00,VWS V14.01,2013-01-15 06:04:00,
2013-01-15 00:09:00,41.7,34.0,30.17,NE,49,3.0,8.0,74,0.00,,SKC,0.00,VWS V14.01,2013-01-15 06:09:00,
2013-01-15 00:14:00,41.5,34.2,30.16,ENE,59,0.0,8.0,75,0.00,,SKC,0.00,VWS V14.01,2013-01-15 06:14:00,
2013-01-15 00:19:00,41.4,34.1,30.17,ENE,59,0.0,8.0,75,0.00,,SKC,0.00,VWS V14.01,2013-01-15 06:19:00,
2013-01-15 00:24:00,41.4,34.4,30.16,NE,36,3.0,8.0,76,0.00,,SKC,0.00,VWS V14.01,2013-01-15 06:24:00,
2013-01-15 00:29:00,41.3,34.3,30.16,NE,44,3.0,9.0,76,0.00,,SKC,0.00,VWS V14.01,2013-01-15 06:29:00,
2013-01-15 00:30:00,41.2,34.2,30.16,NE,35,2.0,9.0,76,0.00,,SKC,0.00,VWS V14.01,2013-01-15 06:30:00,
2013-01-15 00:34:00,41.2,34.2,30.17,NE,35,0.0,3.0,76,0.00,,SKC,0.00,VWS V14.01,2013-01-15 06:34:00,
2013-01-15 00:39:00,41.1,34.5,30.17,ENE,78,1.0,6.0,77,0.00,,SKC,0.00,VWS V14.01,2013-01-15 06:39:00,
2013-01-15 00:44:00,41.1,34.5,30.17,ENE,61,4.0,7.0,77,0.00,,SKC,0.00,VWS V14.01,2013-01-15 06:44:00,
2013-01-15 00:49:00,40.9,34.6,30.16,North,5,3.0,7.0,78,0.00,,SKC,0.00,VWS V14.01,2013-01-15 06:49:00,
2013-01-15 00:54:00,40.7,34.7,30.16,NNE,26,0.0,7.0,79,0.00,,SKC,0.00,VWS V14.01,2013-01-15 06:54:00,
2013-01-15 00:59:00,40.6,34.6,30.16,North,9,6.0,9.0,79,0.00,,SKC,0.00,VWS V14.01,2013-01-15 06:59:00,
2013-01-15 01:00:00,40.5,34.8,30.16,North,11,6.0,9.0,80,0.00,,SKC,0.00,VWS V14.01,2013-01-15 07:00:00,
2013-01-15 01:04:00,40.4,34.7,30.16,North,5,4.0,8.0,80,0.00,,SKC,0.00,VWS V14.01,2013-01-15 07:04:00,
2013-01-15 01:09:00,40.2,34.8,30.16,North,360,0.0,8.0,81,0.00,,SKC,0.00,VWS V14.01,2013-01-15 07:09:00,
2013-01-15 01:14:00,40.0,35.0,30.17,North,5,5.0,8.0,82,0.00,,SKC,0.00,VWS V14.01,2013-01-15 07:14:00,
2013-01-15 01:19:00,39.9,34.9,30.17,NNE,21,0.0,8.0,82,0.00,,SKC,0.00,VWS V14.01,2013-01-15 07:19:00,
2013-01-15 01:24:00,39.7,35.0,30.16,NNE,24,0.0,8.0,83,0.00,,SKC,0.00,VWS V14.01,2013-01-15 07:24:00,
2013-01-15 01:29:00,39.6,35.2,30.16,NNE,23,2.0,8.0,84,0.00,,SKC,0.00,VWS V14.01,2013-01-15 07:29:00,
2013-01-15 01:30:00,39.5,35.1,30.16,NNE,22,2.0,8.0,84,0.00,,SKC,0.00,VWS V14.01,2013-01-15 07:30:00,
2013-01-15 01:34:00,39.5,35.1,30.16,NNE,24,2.0,4.0,84,0.00,,SKC,0.00,VWS V14.01,2013-01-15 07:34:00,
2013-01-15 01:39:00,39.4,35.3,30.17,NNE,22,0.0,5.0,85,0.00,,SKC,0.00,VWS V14.01,2013-01-15 07:39:00,
2013-01-15 01:44:00,39.3,35.2,30.17,NNE,24,0.0,5.0,85,0.00,,SKC,0.00,VWS V14.01,2013-01-15 07:44:00,
2013-01-15 01:49:00,39.2,35.4,30.17,NNE,24,0.0,5.0,86,0.00,,SKC,0.00,VWS V14.01,2013-01-15 07:49:00,
2013-01-15 01:54:00,39.2,35.4,30.17,NNE,24,0.0,5.0,86,0.00,,SKC,0.00,VWS V14.01,2013-01-15 07:54:00,
2013-01-15 01:59:00,39.1,35.3,30.17,NNE,24,0.0,5.0,86,0.00,,SKC,0.00,VWS V14.01,2013-01-15 07:59:00,
2013-01-15 02:00:00,39.1,35.6,30.17,NNE,22,3.0,5.0,87,0.00,,SKC,0.00,VWS V14.01,2013-01-15 08:00:00,
2013-01-15 02:04:00,39.0,35.5,30.17,NNE,22,0.0,4.0,87,0.00,,SKC,0.00,VWS V14.01,2013-01-15 08:04:00,
2013-01-15 02:09:00,38.9,35.4,30.17,NNE,22,3.0,4.0,87,0.00,,SKC,0.00,VWS V14.01,2013-01-15 08:09:00,
2013-01-15 02:14:00,38.9,35.7,30.17,NNE,15,3.0,7.0,88,0.00,,SKC,0.00,VWS V14.01,2013-01-15 08:14:00,
2013-01-15 02:19:00,38.8,35.6,30.17,North,11,0.0,7.0,88,0.00,,SKC,0.00,VWS V14.01,2013-01-15 08:19:00,
2013-01-15 02:24:00,38.6,35.6,30.17,NNW,340,3.0,7.0,89,0.00,,SKC,0.00,VWS V14.01,2013-01-15 08:24:00,
2013-01-15 02:29:00,38.5,35.5,30.17,NW,317,3.0,10.0,89,0.00,,SKC,0.00,VWS V14.01,2013-01-15 08:29:00,
2013-01-15 02:30:00,38.4,35.5,30.17,NNW,341,2.0,10.0,89,0.00,,SKC,0.00,VWS V14.01,2013-01-15 08:30:00,
2013-01-15 02:34:00,38.3,35.3,30.17,NNW,339,4.0,9.0,89,0.00,,SKC,0.00,VWS V14.01,2013-01-15 08:34:00,
2013-01-15 02:39:00,38.2,35.2,30.17,NNW,337,2.0,10.0,89,0.00,,SKC,0.00,VWS V14.01,2013-01-15 08:39:00,
2013-01-15 02:44:00,38.1,35.4,30.17,NNW,343,2.0,10.0,90,0.00,,SKC,0.00,VWS V14.01,2013-01-15 08:44:00,
2013-01-15 02:49:00,37.9,35.2,30.16,NNW,346,1.0,10.0,90,0.00,,SKC,0.00,VWS V14.01,2013-01-15 08:49:00,
2013-01-15 02:54:00,37.9,35.2,30.17,NNW,340,6.0,10.0,90,0.00,,SKC,0.00,VWS V14.01,2013-01-15 08:54:00,
2013-01-15 02:59:00,37.8,35.1,30.17,NNW,337,3.0,10.0,90,0.00,,SKC,0.00,VWS V14.01,2013-01-15 08:59:00,
2013-01-15 03:00:00,37.8,35.1,30.16,NNW,340,0.0,10.0,90,0.00,,SKC,0.00,VWS V14.01,2013-01-15 09:00:00,
2013-01-15 03:04:00,37.8,35.1,30.17,North,355,4.0,9.0,90,0.00,,SKC,0.00,VWS V14.01,2013-01-15 09:04:00,
2013-01-15 03:09:00,37.7,35.3,30.16,North,355,4.0,9.0,91,0.00,,SKC,0.00,VWS V14.01,2013-01-15 09:09:00,
2013-01-15 03:14:00,37.7,35.3,30.16,North,355,2.0,9.0,91,0.00,,SKC,0.00,VWS V14.01,2013-01-15 09:14:00,
2013-01-15 03:19:00,37.7,35.3,30.16,North,355,0.0,9.0,91,0.00,,SKC,0.00,VWS V14.01,2013-01-15 09:19:00,
2013-01-15 03:24:00,37.7,35.3,30.16,North,355,2.0,5.0,91,0.00,,SKC,0.00,VWS V14.01,2013-01-15 09:24:00,
2013-01-15 03:29:00,37.7,35.3,30.15,North,5,3.0,6.0,91,0.00,,SKC,0.00,VWS V14.01,2013-01-15 09:29:00,
2013-01-15 03:30:00,37.7,35.3,30.15,North,5,1.0,6.0,91,0.00,,SKC,0.00,VWS V14.01,2013-01-15 09:30:00,
2013-01-15 03:34:00,37.7,35.3,30.16,North,355,6.0,7.0,91,0.00,,SKC,0.00,VWS V14.01,2013-01-15 09:34:00,
2013-01-15 03:39:00,37.5,35.1,30.15,NNW,344,6.0,12.0,91,0.00,,SKC,0.00,VWS V14.01,2013-01-15 09:39:00,
2013-01-15 03:44:00,37.3,34.9,30.16,NNW,338,5.0,12.0,91,0.00,,SKC,0.00,VWS V14.01,2013-01-15 09:44:00,
2013-01-15 03:49:00,37.2,34.8,30.15,North,355,7.0,12.0,91,0.00,,SKC,0.00,VWS V14.01,2013-01-15 09:49:00,
2013-01-15 03:54:00,37.1,34.7,30.15,NW,313,6.0,12.0,91,0.00,,SKC,0.00,VWS V14.01,2013-01-15 09:54:00,
2013-01-15 03:59:00,37.0,34.6,30.15,North,355,2.0,14.0,91,0.00,,SKC,0.00,VWS V14.01,2013-01-15 09:59:00,
2013-01-15 04:00:00,37.0,34.6,30.15,North,350,7.0,14.0,91,0.00,,SKC,0.00,VWS V14.01,2013-01-15 10:00:00,
2013-01-15 04:04:00,36.9,34.8,30.15,NNW,345,5.0,11.0,92,0.00,,SKC,0.00,VWS V14.01,2013-01-15 10:04:00,
2013-01-15 04:09:00,36.8,34.7,30.15,NNW,340,3.0,12.0,92,0.00,,SKC,0.00,VWS V14.01,2013-01-15 10:09:00,
2013-01-15 04:14:00,36.8,34.7,30.15,NNW,342,4.0,12.0,92,0.00,,SKC,0.00,VWS V14.01,2013-01-15 10:14:00,
2013-01-15 04:19:00,36.8,34.7,30.15,North,355,4.0,12.0,92,0.00,,SKC,0.00,VWS V14.01,2013-01-15 10:19:00,
2013-01-15 04:24:00,36.8,34.7,30.15,NNW,347,4.0,12.0,92,0.00,,SKC,0.00,VWS V14.01,2013-01-15 10:24:00,
2013-01-15 04:29:00,36.8,34.7,30.15,NNW,335,4.0,12.0,92,0.00,,SKC,0.00,VWS V14.01,2013-01-15 10:29:00,
2013-01-15 04:30:00,36.8,34.7,30.15,North,355,0.0,12.0,92,0.00,,SKC,0.00,VWS V14.01,2013-01-15 10:30:00,
2013-01-15 04:34:00,36.8,34.7,30.16,North,350,3.0,6.0,92,0.00,,SKC,0.00,VWS V14.01,2013-01-15 10:34:00,
2013-01-15 04:39:00,36.8,34.7,30.15,NNW,340,2.0,9.0,92,0.00,,SKC,0.00,VWS V14.01,2013-01-15 10:39:00,
2013-01-15 04:44:00,36.8,34.7,30.15,NNW,346,5.0,9.0,92,0.00,,SKC,0.00,VWS V14.01,2013-01-15 10:44:00,
2013-01-15 04:49:00,36.8,34.7,30.15,North,355,4.0,9.0,92,0.00,,SKC,0.00,VWS V14.01,2013-01-15 10:49:00,
2013-01-15 04:54:00,36.8,34.7,30.15,North,355,0.0,9.0,92,0.00,,SKC,0.00,VWS V14.01,2013-01-15 10:54:00,
2013-01-15 04:59:00,36.8,34.7,30.16,North,355,0.0,9.0,92,0.00,,SKC,0.00,VWS V14.01,2013-01-15 10:59:00,
2013-01-15 05:00:00,36.8,34.7,30.16,NNE,16,3.0,9.0,92,0.00,,SKC,0.00,VWS V14.01,2013-01-15 11:00:00,
2013-01-15 05:04:00,36.8,34.7,30.15,NNE,14,0.0,6.0,92,0.00,,SKC,0.00,VWS V14.01,2013-01-15 11:04:00,
2013-01-15 05:09:00,36.7,34.6,30.15,North,355,3.0,7.0,92,0.00,,SKC,0.00,VWS V14.01,2013-01-15 11:09:00,
2013-01-15 05:14:00,36.7,34.6,30.15,NNW,346,4.0,10.0,92,0.00,,SKC,0.00,VWS V14.01,2013-01-15 11:14:00,
2013-01-15 05:19:00,36.6,34.5,30.16,NNW,344,2.0,12.0,92,0.00,,SKC,0.00,VWS V14.01,2013-01-15 11:19:00,
2013-01-15 05:24:00,36.5,34.4,30.16,North,355,3.0,12.0,92,0.00,,SKC,0.00,VWS V14.01,2013-01-15 11:24:00,
2013-01-15 05:29:00,36.5,34.4,30.16,NNE,13,3.0,12.0,92,0.00,,SKC,0.00,VWS V14.01,2013-01-15 11:29:00,
2013-01-15 05:30:00,36.5,34.4,30.16,North,0,4.0,12.0,92,0.00,,SKC,0.00,VWS V14.01,2013-01-15 11:30:00,
2013-01-15 06:00:00,36.6,34.5,30.16,North,0,3.0,13.0,92,0.00,,SKC,0.00,VWS V14.01,2013-01-15 12:00:00,
2013-01-15 06:30:00,36.6,34.2,30.16,North,0,4.0,13.0,91,0.00,,SKC,0.00,VWS V14.01,2013-01-15 12:30:00,
2013-01-15 07:00:00,36.6,34.0,30.17,North,0,4.0,11.0,90,0.00,,SKC,0.00,VWS V14.01,2013-01-15 13:00:00,
2013-01-15 07:30:00,36.6,34.0,30.18,NNW,338,5.0,14.0,90,0.00,,SKC,0.00,VWS V14.01,2013-01-15 13:30:00,
2013-01-15 08:00:00,36.8,33.9,30.19,North,0,4.0,12.0,89,0.00,,SKC,0.00,VWS V14.01,2013-01-15 14:00:00,
2013-01-15 08:30:00,36.9,33.7,30.20,North,0,6.0,15.0,88,0.00,,SKC,0.00,VWS V14.01,2013-01-15 14:30:00,
2013-01-15 09:00:00,37.1,33.9,30.19,NNW,338,5.0,14.0,88,0.00,,SKC,0.00,VWS V14.01,2013-01-15 15:00:00,
2013-01-15 09:30:00,37.8,34.3,30.20,NNE,22,5.0,15.0,87,0.00,,SKC,0.00,VWS V14.01,2013-01-15 15:30:00,
2013-01-15 10:00:00,37.8,34.0,30.20,NNW,338,6.0,16.0,86,0.00,,SKC,0.00,VWS V14.01,2013-01-15 16:00:00,
2013-01-15 10:30:00,37.4,33.6,30.21,North,0,6.0,16.0,86,0.00,,SKC,0.00,VWS V14.01,2013-01-15 16:30:00,
2013-01-15 11:00:00,37.3,33.5,30.21,NNW,338,6.0,15.0,86,0.00,,SKC,0.00,VWS V14.01,2013-01-15 17:00:00,
2013-01-15 11:30:00,37.6,33.5,30.19,NNW,338,7.0,16.0,85,0.00,,SKC,0.00,VWS V14.01,2013-01-15 17:30:00,
2013-01-15 12:04:00,37.6,33.5,30.19,NNW,338,7.0,16.0,85,0.00,,SKC,0.00,VWS V14.01,2013-01-15 18:04:00,
2013-01-15 12:09:00,37.4,33.3,30.19,North,349,4.0,14.0,85,0.00,,SKC,0.00,VWS V14.01,2013-01-15 18:09:00,
2013-01-15 12:14:00,37.3,33.2,30.19,WNW,294,8.0,14.0,85,0.00,,SKC,0.00,VWS V14.01,2013-01-15 18:14:00,
2013-01-15 12:19:00,37.2,33.1,30.19,NW,322,7.0,14.0,85,0.00,,SKC,0.00,VWS V14.01,2013-01-15 18:19:00,
2013-01-15 12:24:00,37.1,33.0,30.20,NW,323,10.0,18.0,85,0.00,,SKC,0.00,VWS V14.01,2013-01-15 18:24:00,
2013-01-15 12:29:00,37.1,33.0,30.18,NNE,17,9.0,18.0,85,0.00,,SKC,0.00,VWS V14.01,2013-01-15 18:29:00,
2013-01-15 12:34:00,37.2,33.1,30.19,NW,311,6.0,12.0,85,0.00,,SKC,0.00,VWS V14.01,2013-01-15 18:34:00,
2013-01-15 12:39:00,37.1,33.0,30.18,North,355,9.0,16.0,85,0.00,,SKC,0.00,VWS V14.01,2013-01-15 18:39:00,
2013-01-15 12:44:00,37.1,33.0,30.18,NNW,334,6.0,16.0,85,0.00,,SKC,0.00,VWS V14.01,2013-01-15 18:44:00,
2013-01-15 12:49:00,37.2,32.8,30.17,NW,314,9.0,19.0,84,0.00,,SKC,0.00,VWS V14.01,2013-01-15 18:49:00,
2013-01-15 12:54:00,37.2,32.8,30.17,North,355,12.0,19.0,84,0.00,,SKC,0.00,VWS V14.01,2013-01-15 18:54:00,
2013-01-15 12:59:00,37.2,32.8,30.17,NNW,327,10.0,19.0,84,0.00,,SKC,0.00,VWS V14.01,2013-01-15 18:59:00,
2013-01-15 13:04:00,37.2,32.8,30.17,NW,318,11.0,15.0,84,0.00,,SKC,0.00,VWS V14.01,2013-01-15 19:04:00,
2013-01-15 13:09:00,37.3,32.9,30.16,WNW,302,11.0,15.0,84,0.00,,SKC,0.00,VWS V14.01,2013-01-15 19:09:00,
2013-01-15 13:14:00,37.4,33.0,30.16,North,355,6.0,15.0,84,0.00,,SKC,0.00,VWS V14.01,2013-01-15 19:14:00,
2013-01-15 13:19:00,37.6,33.2,30.16,NW,319,11.0,15.0,84,0.00,,SKC,0.00,VWS V14.01,2013-01-15 19:19:00,
2013-01-15 13:24:00,37.6,32.9,30.16,North,360,9.0,15.0,83,0.00,,SKC,0.00,VWS V14.01,2013-01-15 19:24:00,
2013-01-15 13:29:00,37.7,33.3,30.15,WNW,298,5.0,16.0,84,0.00,,SKC,0.00,VWS V14.01,2013-01-15 19:29:00,
2013-01-15 13:34:00,37.8,33.1,30.16,NW,319,14.0,15.0,83,0.00,,SKC,0.00,VWS V14.01,2013-01-15 19:34:00,
2013-01-15 13:39:00,37.7,33.0,30.16,NW,312,6.0,15.0,83,0.00,,SKC,0.00,VWS V14.01,2013-01-15 19:39:00,
2013-01-15 13:44:00,37.7,33.0,30.16,North,360,6.0,16.0,83,0.00,,SKC,0.00,VWS V14.01,2013-01-15 19:44:00,
2013-01-15 13:49:00,37.7,32.7,30.17,NW,317,11.0,16.0,82,0.00,,SKC,0.00,VWS V14.01,2013-01-15 19:49:00,
2013-01-15 13:54:00,37.8,32.8,30.16,North,355,11.0,17.0,82,0.00,,SKC,0.00,VWS V14.01,2013-01-15 19:54:00,
2013-01-15 13:59:00,37.9,32.9,30.16,NW,326,3.0,17.0,82,0.00,,SKC,0.00,VWS V14.01,2013-01-15 19:59:00,
2013-01-15 14:04:00,38.0,33.0,30.16,North,5,3.0,11.0,82,0.00,,SKC,0.00,VWS V14.01,2013-01-15 20:04:00,
2013-01-15 14:09:00,38.2,33.2,30.16,NNW,339,13.0,16.0,82,0.00,,SKC,0.00,VWS V14.01,2013-01-15 20:09:00,
2013-01-15 14:14:00,38.2,33.2,30.16,NW,320,15.0,22.0,82,0.00,,SKC,0.00,VWS V14.01,2013-01-15 20:14:00,
2013-01-15 14:19:00,38.3,33.0,30.16,NNW,340,9.0,22.0,81,0.00,,SKC,0.00,VWS V14.01,2013-01-15 20:19:00,
2013-01-15 14:24:00,38.4,33.1,30.16,NNW,337,11.0,22.0,81,0.00,,SKC,0.00,VWS V14.01,2013-01-15 20:24:00,
2013-01-15 14:29:00,38.4,33.1,30.16,NNW,331,6.0,22.0,81,0.00,,SKC,0.00,VWS V14.01,2013-01-15 20:29:00,
2013-01-15 14:34:00,38.6,33.3,30.16,North,355,1.0,16.0,81,0.00,,SKC,0.00,VWS V14.01,2013-01-15 20:34:00,
2013-01-15 14:39:00,38.7,33.4,30.17,NW,311,10.0,16.0,81,0.00,,SKC,0.00,VWS V14.01,2013-01-15 20:39:00,
2013-01-15 14:44:00,38.8,33.5,30.16,NW,318,7.0,18.0,81,0.00,,SKC,0.00,VWS V14.01,2013-01-15 20:44:00,
2013-01-15 14:49:00,38.8,33.5,30.16,NW,312,6.0,18.0,81,0.00,,SKC,0.00,VWS V14.01,2013-01-15 20:49:00,
2013-01-15 14:54:00,38.8,33.5,30.17,NNW,343,10.0,18.0,81,0.00,,SKC,0.00,VWS V14.01,2013-01-15 20:54:00,
2013-01-15 14:59:00,38.7,33.4,30.17,NNW,335,7.0,18.0,81,0.00,,SKC,0.00,VWS V14.01,2013-01-15 20:59:00,
2013-01-15 15:04:00,38.8,33.5,30.17,NW,313,5.0,11.0,81,0.00,,SKC,0.00,VWS V14.01,2013-01-15 21:04:00,
2013-01-15 15:09:00,38.9,33.6,30.17,NNW,348,9.0,16.0,81,0.00,,SKC,0.00,VWS V14.01,2013-01-15 21:09:00,
2013-01-15 15:14:00,39.2,33.9,30.17,NNW,330,6.0,16.0,81,0.00,,SKC,0.00,VWS V14.01,2013-01-15 21:14:00,
2013-01-15 15:19:00,39.4,33.8,30.17,NW,325,4.0,16.0,80,0.00,,SKC,0.00,VWS V14.01,2013-01-15 21:19:00,
2013-01-15 15:24:00,39.6,34.0,30.16,North,355,6.0,16.0,80,0.00,,SKC,0.00,VWS V14.01,2013-01-15 21:24:00,
2013-01-15 15:29:00,39.7,33.7,30.17,NW,313,7.0,16.0,79,0.00,,SKC,0.00,VWS V14.01,2013-01-15 21:29:00,
2013-01-15 15:34:00,39.8,33.8,30.16,North,360,9.0,13.0,79,0.00,,SKC,0.00,VWS V14.01,2013-01-15 21:34:00,
2013-01-15 15:39:00,39.9,33.9,30.16,NW,315,10.0,17.0,79,0.00,,SKC,0.00,VWS V14.01,2013-01-15 21:39:00,
2013-01-15 15:44:00,39.9,33.9,30.16,WNW,299,3.0,19.0,79,0.00,,SKC,0.00,VWS V14.01,2013-01-15 21:44:00,
2013-01-15 15:49:00,40.2,34.2,30.17,NW,310,8.0,20.0,79,0.00,,SKC,0.00,VWS V14.01,2013-01-15 21:49:00,
2013-01-15 15:54:00,40.4,34.4,30.17,NW,315,6.0,20.0,79,0.00,,SKC,0.00,VWS V14.01,2013-01-15 21:54:00,
2013-01-15 15:59:00,40.5,34.2,30.17,North,355,7.0,20.0,78,0.00,,SKC,0.00,VWS V14.01,2013-01-15 21:59:00,
2013-01-15 16:04:00,40.6,34.3,30.17,North,355,3.0,12.0,78,0.00,,SKC,0.00,VWS V14.01,2013-01-15 22:04:00,
2013-01-15 16:09:00,40.6,34.3,30.16,NNE,13,5.0,14.0,78,0.00,,SKC,0.00,VWS V14.01,2013-01-15 22:09:00,
2013-01-15 16:14:00,40.5,34.2,30.17,North,11,7.0,17.0,78,0.00,,SKC,0.00,VWS V14.01,2013-01-15 22:14:00,
2013-01-15 16:19:00,40.1,33.8,30.18,North,360,3.0,21.0,78,0.00,,SKC,0.00,VWS V14.01,2013-01-15 22:19:00,
2013-01-15 16:24:00,39.8,33.5,30.18,North,11,6.0,21.0,78,0.00,,SKC,0.00,VWS V14.01,2013-01-15 22:24:00,
2013-01-15 16:29:00,39.7,33.7,30.19,NNW,327,10.0,21.0,79,0.00,,SKC,0.00,VWS V14.01,2013-01-15 22:29:00,
2013-01-15 16:34:00,39.8,33.8,30.19,North,355,6.0,12.0,79,0.00,,SKC,0.00,VWS V14.01,2013-01-15 22:34:00,
2013-01-15 16:39:00,39.8,33.5,30.19,NNW,342,11.0,14.0,78,0.00,,SKC,0.00,VWS V14.01,2013-01-15 22:39:00,
2013-01-15 16:44:00,39.9,33.6,30.20,NNE,17,6.0,16.0,78,0.00,,SKC,0.00,VWS V14.01,2013-01-15 22:44:00,
2013-01-15 16:49:00,40.0,33.7,30.21,NNW,341,14.0,21.0,78,0.00,,SKC,0.00,VWS V14.01,2013-01-15 22:49:00,
2013-01-15 16:54:00,40.1,33.8,30.22,NW,318,10.0,21.0,78,0.00,,SKC,0.00,VWS V14.01,2013-01-15 22:54:00,
2013-01-15 16:59:00,40.1,33.5,30.22,North,351,4.0,21.0,77,0.00,,SKC,0.00,VWS V14.01,2013-01-15 22:59:00,
2013-01-15 17:04:00,40.1,33.5,30.22,NNW,331,5.0,12.0,77,0.00,,SKC,0.00,VWS V14.01,2013-01-15 23:04:00,
2013-01-15 17:09:00,40.1,33.8,30.22,NW,325,6.0,13.0,78,0.00,,SKC,0.00,VWS V14.01,2013-01-15 23:09:00,
2013-01-15 17:14:00,40.1,33.8,30.22,NNW,331,12.0,13.0,78,0.00,,SKC,0.00,VWS V14.01,2013-01-15 23:14:00,
2013-01-15 17:19:00,40.2,33.6,30.23,WNW,296,9.0,19.0,77,0.00,,SKC,0.00,VWS V14.01,2013-01-15 23:19:00,
2013-01-15 17:24:00,40.2,33.6,30.23,NNW,329,4.0,19.0,77,0.00,,SKC,0.00,VWS V14.01,2013-01-15 23:24:00,
2013-01-15 17:29:00,40.1,33.5,30.23,NW,326,12.0,19.0,77,0.00,,SKC,0.00,VWS V14.01,2013-01-15 23:29:00,
2013-01-15 17:34:00,39.9,33.3,30.23,NW,323,7.0,11.0,77,0.00,,SKC,0.00,VWS V14.01,2013-01-15 23:34:00,
2013-01-15 17:39:00,39.9,33.3,30.23,NW,325,5.0,16.0,77,0.00,,SKC,0.00,VWS V14.01,2013-01-15 23:39:00,
2013-01-15 17:44:00,39.8,33.2,30.23,North,360,4.0,17.0,77,0.00,,SKC,0.00,VWS V14.01,2013-01-15 23:44:00,
2013-01-15 17:49:00,39.7,33.1,30.23,NW,309,7.0,17.0,77,0.00,,SKC,0.00,VWS V14.01,2013-01-15 23:49:00,
2013-01-15 17:54:00,39.5,32.9,30.23,NW,325,6.0,17.0,77,0.00,,SKC,0.00,VWS V14.01,2013-01-15 23:54:00,
2013-01-15 17:59:00,39.5,32.9,30.22,NNW,329,9.0,17.0,77,0.00,,SKC,0.00,VWS V14.01,2013-01-15 23:59:00,
2013-01-15 18:04:00,39.3,33.0,30.22,WNW,296,7.0,12.0,78,0.00,,SKC,0.00,VWS V14.01,2013-01-16 00:04:00,
2013-01-15 18:09:00,39.2,32.6,30.23,NNW,346,11.0,17.0,77,0.00,,SKC,0.00,VWS V14.01,2013-01-16 00:09:00,
2013-01-15 18:14:00,39.1,32.5,30.23,NNW,330,4.0,18.0,77,0.00,,SKC,0.00,VWS V14.01,2013-01-16 00:14:00,
2013-01-15 18:19:00,39.1,32.2,30.24,NNW,336,5.0,20.0,76,0.00,,SKC,0.00,VWS V14.01,2013-01-16 00:19:00,
2013-01-15 18:24:00,39.0,32.1,30.24,North,9,7.0,20.0,76,0.00,,SKC,0.00,VWS V14.01,2013-01-16 00:24:00,
2013-01-15 18:29:00,39.0,32.1,30.24,North,355,9.0,20.0,76,0.00,,SKC,0.00,VWS V14.01,2013-01-16 00:29:00,
2013-01-15 18:34:00,38.9,32.0,30.24,NNW,346,2.0,13.0,76,0.00,,SKC,0.00,VWS V14.01,2013-01-16 00:34:00,
2013-01-15 18:39:00,38.9,32.0,30.24,NNW,344,4.0,13.0,76,0.00,,SKC,0.00,VWS V14.01,2013-01-16 00:39:00,
2013-01-15 18:44:00,38.8,31.9,30.23,NNW,348,7.0,13.0,76,0.00,,SKC,0.00,VWS V14.01,2013-01-16 00:44:00,
2013-01-15 18:49:00,38.7,31.8,30.24,NNW,332,5.0,13.0,76,0.00,,SKC,0.00,VWS V14.01,2013-01-16 00:49:00,
2013-01-15 18:54:00,38.6,32.0,30.24,NNW,342,6.0,14.0,77,0.00,,SKC,0.00,VWS V14.01,2013-01-16 00:54:00,
2013-01-15 18:59:00,38.4,31.8,30.24,NNW,331,3.0,14.0,77,0.00,,SKC,0.00,VWS V14.01,2013-01-16 00:59:00,
2013-01-15 19:04:00,38.4,31.8,30.24,North,355,4.0,7.0,77,0.00,,SKC,0.00,VWS V14.01,2013-01-16 01:04:00,
2013-01-15 19:09:00,38.3,31.7,30.24,NNW,343,2.0,12.0,77,0.00,,SKC,0.00,VWS V14.01,2013-01-16 01:09:00,
2013-01-15 19:14:00,38.2,32.0,30.23,NNW,348,9.0,12.0,78,0.00,,SKC,0.00,VWS V14.01,2013-01-16 01:14:00,
2013-01-15 19:19:00,38.1,31.9,30.23,NNW,327,6.0,12.0,78,0.00,,SKC,0.00,VWS V14.01,2013-01-16 01:19:00,
2013-01-15 19:24:00,38.1,31.5,30.23,NNW,347,2.0,13.0,77,0.00,,SKC,0.00,VWS V14.01,2013-01-16 01:24:00,
2013-01-15 19:29:00,38.0,31.4,30.23,NW,319,4.0,13.0,77,0.00,,SKC,0.00,VWS V14.01,2013-01-16 01:29:00,
2013-01-15 19:34:00,37.9,31.4,30.23,NNW,336,5.0,9.0,77,0.00,,SKC,0.00,VWS V14.01,2013-01-16 01:34:00,
2013-01-15 19:39:00,37.9,31.4,30.24,NNW,332,4.0,11.0,77,0.00,,SKC,0.00,VWS V14.01,2013-01-16 01:39:00,
2013-01-15 19:44:00,37.8,31.2,30.25,NNW,337,5.0,11.0,77,0.00,,SKC,0.00,VWS V14.01,2013-01-16 01:44:00,
2013-01-15 19:49:00,37.8,31.2,30.25,NNW,335,3.0,11.0,77,0.00,,SKC,0.00,VWS V14.01,2013-01-16 01:49:00,
2013-01-15 19:54:00,37.8,31.2,30.25,NW,325,7.0,13.0,77,0.00,,SKC,0.00,VWS V14.01,2013-01-16 01:54:00,
2013-01-15 19:59:00,37.8,30.9,30.26,NW,317,3.0,13.0,76,0.00,,SKC,0.00,VWS V14.01,2013-01-16 01:59:00,
2013-01-15 20:04:00,37.7,30.8,30.26,NW,325,4.0,10.0,76,0.00,,SKC,0.00,VWS V14.01,2013-01-16 02:04:00,
2013-01-15 20:09:00,37.7,30.5,30.26,NNW,334,6.0,11.0,75,0.00,,SKC,0.00,VWS V14.01,2013-01-16 02:09:00,
2013-01-15 20:14:00,37.7,30.5,30.26,NW,314,5.0,14.0,75,0.00,,SKC,0.00,VWS V14.01,2013-01-16 02:14:00,
2013-01-15 20:19:00,37.7,30.2,30.27,NNW,338,4.0,14.0,74,0.00,,SKC,0.00,VWS V14.01,2013-01-16 02:19:00,
2013-01-15 20:24:00,37.6,30.1,30.27,North,5,7.0,14.0,74,0.00,,SKC,0.00,VWS V14.01,2013-01-16 02:24:00,
2013-01-15 20:29:00,37.6,30.1,30.26,NNW,348,11.0,14.0,74,0.00,,SKC,0.00,VWS V14.01,2013-01-16 02:29:00,
2013-01-15 20:34:00,37.5,30.0,30.26,NW,326,6.0,10.0,74,0.00,,SKC,0.00,VWS V14.01,2013-01-16 02:34:00,
2013-01-15 20:39:00,37.4,29.5,30.27,NNW,340,4.0,12.0,73,0.00,,SKC,0.00,VWS V14.01,2013-01-16 02:39:00,
2013-01-15 20:44:00,37.4,29.5,30.27,NW,315,1.0,12.0,73,0.00,,SKC,0.00,VWS V14.01,2013-01-16 02:44:00,
2013-01-15 20:49:00,37.4,29.2,30.27,NNW,338,5.0,15.0,72,0.00,,SKC,0.00,VWS V14.01,2013-01-16 02:49:00,
2013-01-15 20:54:00,37.3,29.1,30.27,NNW,344,7.0,15.0,72,0.00,,SKC,0.00,VWS V14.01,2013-01-16 02:54:00,
2013-01-15 20:59:00,37.2,29.0,30.27,NNW,333,5.0,15.0,72,0.00,,SKC,0.00,VWS V14.01,2013-01-16 02:59:00,
2013-01-15 21:04:00,37.1,28.9,30.27,NW,323,4.0,10.0,72,0.00,,SKC,0.00,VWS V14.01,2013-01-16 03:04:00,
2013-01-15 21:09:00,37.1,28.9,30.27,NNW,342,2.0,12.0,72,0.00,,SKC,0.00,VWS V14.01,2013-01-16 03:09:00,
2013-01-15 21:14:00,37.0,28.8,30.27,NNW,333,6.0,12.0,72,0.00,,SKC,0.00,VWS V14.01,2013-01-16 03:14:00,
2013-01-15 21:19:00,36.9,28.7,30.27,NNW,341,6.0,12.0,72,0.00,,SKC,0.00,VWS V14.01,2013-01-16 03:19:00,
2013-01-15 21:24:00,36.9,29.1,30.27,NNW,339,2.0,12.0,73,0.00,,SKC,0.00,VWS V14.01,2013-01-16 03:24:00,
2013-01-15 21:29:00,36.8,28.6,30.27,NW,319,0.0,12.0,72,0.00,,SKC,0.00,VWS V14.01,2013-01-16 03:29:00,
2013-01-15 21:34:00,36.8,29.0,30.28,NNW,330,3.0,7.0,73,0.00,,SKC,0.00,VWS V14.01,2013-01-16 03:34:00,
2013-01-15 21:39:00,36.7,28.9,30.28,NNW,327,5.0,7.0,73,0.00,,SKC,0.00,VWS V14.01,2013-01-16 03:39:00,
2013-01-15 21:44:00,36.6,28.8,30.28,NNW,327,7.0,7.0,73,0.00,,SKC,0.00,VWS V14.01,2013-01-16 03:44:00,
2013-01-15 21:49:00,36.6,28.8,30.28,NW,322,5.0,7.0,73,0.00,,SKC,0.00,VWS V14.01,2013-01-16 03:49:00,
2013-01-15 21:54:00,36.6,28.8,30.28,North,349,5.0,10.0,73,0.00,,SKC,0.00,VWS V14.01,2013-01-16 03:54:00,
2013-01-15 21:59:00,36.5,28.7,30.29,NW,319,2.0,10.0,73,0.00,,SKC,0.00,VWS V14.01,2013-01-16 03:59:00,
2013-01-15 22:04:00,36.5,28.7,30.29,NW,320,5.0,6.0,73,0.00,,SKC,0.00,VWS V14.01,2013-01-16 04:04:00,
2013-01-15 22:09:00,36.5,28.7,30.29,NNW,328,3.0,7.0,73,0.00,,SKC,0.00,VWS V14.01,2013-01-16 04:09:00,
2013-01-15 22:14:00,36.4,28.6,30.29,NW,315,3.0,7.0,73,0.00,,SKC,0.00,VWS V14.01,2013-01-16 04:14:00,
2013-01-15 22:19:00,36.3,28.5,30.29,NW,318,2.0,7.0,73,0.00,,SKC,0.00,VWS V14.01,2013-01-16 04:19:00,
2013-01-15 22:24:00,36.2,28.4,30.30,NW,319,4.0,7.0,73,0.00,,SKC,0.00,VWS V14.01,2013-01-16 04:24:00,
2013-01-15 22:29:00,36.1,28.3,30.30,NW,326,2.0,7.0,73,0.00,,SKC,0.00,VWS V14.01,2013-01-16 04:29:00,
2013-01-15 22:34:00,35.9,28.1,30.30,NNW,327,0.0,7.0,73,0.00,,SKC,0.00,VWS V14.01,2013-01-16 04:34:00,
2013-01-15 22:39:00,35.9,28.1,30.31,NNW,338,2.0,7.0,73,0.00,,SKC,0.00,VWS V14.01,2013-01-16 04:39:00,
2013-01-15 22:44:00,35.8,28.0,30.30,NW,320,9.0,9.0,73,0.00,,SKC,0.00,VWS V14.01,2013-01-16 04:44:00,
2013-01-15 22:49:00,35.7,27.9,30.30,NW,324,2.0,9.0,73,0.00,,SKC,0.00,VWS V14.01,2013-01-16 04:49:00,
2013-01-15 22:53:00,35.6,27.5,30.30,NNW,335,11.0,11.0,72,0.00,,SKC,0.00,VWS V14.01,2013-01-16 04:53:00,
2013-01-15 22:58:00,35.7,27.6,30.30,NW,320,3.0,11.0,72,0.00,,SKC,0.00,VWS V14.01,2013-01-16 04:58:00,
2013-01-15 23:00:00,35.7,27.6,30.31,NNW,332,4.0,11.0,72,0.00,,SKC,0.00,VWS V14.01,2013-01-16 05:00:00,
2013-01-15 23:03:00,35.6,27.5,30.31,NNW,329,4.0,6.0,72,0.00,,SKC,0.00,VWS V14.01,2013-01-16 05:03:00,
2013-01-15 23:08:00,35.6,27.1,30.31,NW,326,9.0,9.0,71,0.00,,SKC,0.00,VWS V14.01,2013-01-16 05:08:00,
2013-01-15 23:13:00,35.6,27.1,30.31,NW,321,6.0,10.0,71,0.00,,SKC,0.00,VWS V14.01,2013-01-16 05:13:00,
2013-01-15 23:18:00,35.5,26.7,30.31,NNW,338,4.0,10.0,70,0.00,,SKC,0.00,VWS V14.01,2013-01-16 05:18:00,
2013-01-15 23:23:00,35.5,26.7,30.31,NW,321,2.0,10.0,70,0.00,,SKC,0.00,VWS V14.01,2013-01-16 05:23:00,
2013-01-15 23:28:00,35.4,26.6,30.31,NW,324,1.0,11.0,70,0.00,,SKC,0.00,VWS V14.01,2013-01-16 05:28:00,
2013-01-15 23:33:00,35.4,26.3,30.32,WNW,299,5.0,9.0,69,0.00,,SKC,0.00,VWS V14.01,2013-01-16 05:33:00,
2013-01-15 23:38:00,35.4,26.3,30.32,NNW,327,4.0,11.0,69,0.00,,SKC,0.00,VWS V14.01,2013-01-16 05:38:00,
2013-01-15 23:43:00,35.4,25.9,30.31,NW,321,12.0,14.0,68,0.00,,SKC,0.00,VWS V14.01,2013-01-16 05:43:00,
2013-01-15 23:48:00,35.4,25.5,30.31,NW,319,12.0,14.0,67,0.00,,SKC,0.00,VWS V14.01,2013-01-16 05:48:00,
2013-01-15 23:53:00,35.5,25.3,30.32,NNW,337,7.0,14.0,66,0.00,,SKC,0.00,VWS V14.01,2013-01-16 05:53:00,
2013-01-15 23:58:00,35.4,25.2,30.32,WNW,298,9.0,14.0,66,0.00,,SKC,0.00,VWS V14.01,2013-01-16 05:58:00,